DAL1689 KDTW-KSYR

Flight info

Callsign DAL1689
Flight time 0h 57m
Altitude 29000
Route HHOWE4 BROKK BEWEL GEE GONZZ
Aircraft A319/M-SDE3FGHIRWY/LB1

Departure

Time 2026-04-19 03:40
Airport Detroit Metropolitan Wayne County Airport (KDTW)

Arrival

Time 2026-04-19 04:38
Airport Syracuse Hancock International Airport (KSYR)
Time Latitude Longitude Altitude Speed Heading
2026-04-19 02:53 42.20277 -83.36148 647 ft 0 kts 298°
2026-04-19 02:54 42.20277 -83.36149 647 ft 0 kts 298°
2026-04-19 02:54 42.20277 -83.36148 647 ft 0 kts 298°
2026-04-19 02:55 42.20277 -83.36149 647 ft 0 kts 298°
2026-04-19 02:55 42.20277 -83.36148 647 ft 0 kts 298°
2026-04-19 02:56 42.20277 -83.36149 647 ft 0 kts 298°
2026-04-19 02:56 42.20277 -83.36148 647 ft 0 kts 298°
2026-04-19 02:57 42.20277 -83.36149 647 ft 0 kts 298°
2026-04-19 02:57 42.20277 -83.36148 647 ft 0 kts 298°
2026-04-19 02:57 42.20277 -83.36149 647 ft 0 kts 298°
2026-04-19 02:57 42.20277 -83.36148 647 ft 0 kts 298°
2026-04-19 03:23 42.20268 -83.36126 646 ft 4 kts 298°
2026-04-19 03:23 42.20257 -83.36099 646 ft 1 kts 298°
2026-04-19 03:26 42.20257 -83.36100 646 ft 0 kts 292°
2026-04-19 03:27 42.20255 -83.36103 646 ft 1 kts 259°
2026-04-19 03:27 42.20243 -83.36106 648 ft 4 kts 194°
2026-04-19 03:27 42.20226 -83.36110 646 ft 1 kts 193°
2026-04-19 03:27 42.20220 -83.36113 646 ft 2 kts 197°
2026-04-19 03:28 42.20218 -83.36114 646 ft 2 kts 198°
2026-04-19 03:28 42.20174 -83.36159 648 ft 8 kts 240°
2026-04-19 03:28 42.20168 -83.36210 648 ft 9 kts 268°
2026-04-19 03:28 42.20185 -83.36310 648 ft 9 kts 276°
2026-04-19 03:29 42.20197 -83.36404 648 ft 11 kts 281°
2026-04-19 03:29 42.20213 -83.36509 647 ft 12 kts 282°
2026-04-19 03:29 42.20230 -83.36623 646 ft 12 kts 282°
2026-04-19 03:29 42.20244 -83.36718 648 ft 11 kts 281°
2026-04-19 03:30 42.20271 -83.36806 646 ft 10 kts 300°
2026-04-19 03:30 42.20316 -83.36876 646 ft 10 kts 342°
2026-04-19 03:30 42.20382 -83.36849 646 ft 10 kts 30°
2026-04-19 03:30 42.20449 -83.36800 648 ft 12 kts 28°
2026-04-19 03:31 42.20530 -83.36742 647 ft 14 kts 28°
2026-04-19 03:31 42.20590 -83.36699 647 ft 15 kts 28°
2026-04-19 03:31 42.20685 -83.36628 647 ft 16 kts 29°
2026-04-19 03:31 42.20787 -83.36550 646 ft 18 kts 28°
2026-04-19 03:32 42.20902 -83.36468 645 ft 19 kts 28°
2026-04-19 03:32 42.21009 -83.36389 645 ft 17 kts 28°
2026-04-19 03:32 42.21116 -83.36310 645 ft 18 kts 28°
2026-04-19 03:32 42.21228 -83.36227 646 ft 19 kts 28°
2026-04-19 03:33 42.21330 -83.36152 647 ft 17 kts 27°
2026-04-19 03:33 42.21436 -83.36074 646 ft 17 kts 28°
2026-04-19 03:33 42.21536 -83.35999 646 ft 17 kts 28°
2026-04-19 03:33 42.21644 -83.35920 645 ft 19 kts 28°
2026-04-19 03:34 42.21754 -83.35839 644 ft 16 kts 29°
2026-04-19 03:34 42.21816 -83.35750 645 ft 13 kts 81°
2026-04-19 03:34 42.21819 -83.35628 645 ft 13 kts 88°
2026-04-19 03:34 42.21821 -83.35499 646 ft 14 kts 89°
2026-04-19 03:35 42.21823 -83.35360 646 ft 15 kts 89°
2026-04-19 03:35 42.21825 -83.35207 646 ft 17 kts 88°
2026-04-19 03:35 42.21828 -83.35049 646 ft 17 kts 88°
2026-04-19 03:35 42.21831 -83.34894 647 ft 15 kts 89°
2026-04-19 03:36 42.21834 -83.34753 647 ft 15 kts 88°
2026-04-19 03:36 42.21836 -83.34624 647 ft 11 kts 88°
2026-04-19 03:36 42.21848 -83.34519 647 ft 12 kts 60°
2026-04-19 03:36 42.21921 -83.34455 646 ft 13 kts 29°
2026-04-19 03:37 42.22008 -83.34391 647 ft 15 kts 29°
2026-04-19 03:37 42.22103 -83.34319 646 ft 16 kts 29°
2026-04-19 03:37 42.22210 -83.34240 646 ft 18 kts 29°
2026-04-19 03:37 42.22320 -83.34158 646 ft 19 kts 29°
2026-04-19 03:38 42.22441 -83.34070 647 ft 20 kts 27°
2026-04-19 03:38 42.22564 -83.33980 647 ft 20 kts 29°
2026-04-19 03:38 42.22684 -83.33891 646 ft 18 kts 29°
2026-04-19 03:38 42.22795 -83.33810 646 ft 19 kts 29°
2026-04-19 03:39 42.22858 -83.33732 645 ft 11 kts 83°
2026-04-19 03:39 42.22819 -83.33640 645 ft 10 kts 157°
2026-04-19 03:39 42.22753 -83.33673 648 ft 10 kts 211°
2026-04-19 03:39 42.22669 -83.33733 647 ft 31 kts 208°
2026-04-19 03:40 42.22208 -83.34075 647 ft 117 kts 209°
2026-04-19 03:40 42.21323 -83.34718 957 ft 152 kts 209°
2026-04-19 03:40 42.20401 -83.35385 1821 ft 151 kts 216°
2026-04-19 03:40 42.19446 -83.36012 2625 ft 162 kts 205°
2026-04-19 03:41 42.18212 -83.36043 3139 ft 197 kts 175°
2026-04-19 03:41 42.16791 -83.35632 3631 ft 221 kts 174°
2026-04-19 03:41 42.15194 -83.35157 4196 ft 246 kts 173°
2026-04-19 03:41 42.13517 -83.34646 5324 ft 248 kts 173°
2026-04-19 03:42 42.11855 -83.33946 6442 ft 257 kts 155°
2026-04-19 03:42 42.10474 -83.32359 7425 ft 272 kts 129°
2026-04-19 03:42 42.09696 -83.29914 8048 ft 300 kts 97°
2026-04-19 03:42 42.09736 -83.27046 8910 ft 313 kts 85°
2026-04-19 03:43 42.09919 -83.24078 9851 ft 323 kts 80°
2026-04-19 03:43 42.10420 -83.21054 10471 ft 343 kts 76°
2026-04-19 03:43 42.10991 -83.17844 11027 ft 362 kts 78°
2026-04-19 03:43 42.11607 -83.14485 11793 ft 374 kts 76°
2026-04-19 03:44 42.12483 -83.11131 12627 ft 385 kts 73°
2026-04-19 03:44 42.13416 -83.07699 13419 ft 395 kts 75°
2026-04-19 03:44 42.14365 -83.04180 14150 ft 404 kts 77°
2026-04-19 03:44 42.15003 -83.01803 14631 ft 408 kts 77°
2026-04-19 03:45 42.15621 -82.99499 15108 ft 412 kts 77°
2026-04-19 03:45 42.16606 -82.95841 15888 ft 417 kts 77°
2026-04-19 03:45 42.17601 -82.92143 16618 ft 422 kts 77°
2026-04-19 03:45 42.18606 -82.88405 17054 ft 426 kts 77°
2026-04-19 03:46 42.19605 -82.84689 17887 ft 430 kts 78°
2026-04-19 03:46 42.20628 -82.80874 18627 ft 434 kts 78°
2026-04-19 03:46 42.21657 -82.77017 19224 ft 439 kts 78°
2026-04-19 03:46 42.22692 -82.73121 19883 ft 444 kts 77°
2026-04-19 03:47 42.23738 -82.69188 20533 ft 449 kts 77°
2026-04-19 03:47 42.24623 -82.65203 21157 ft 447 kts 86°
2026-04-19 03:47 42.25092 -82.61029 21793 ft 442 kts 96°
2026-04-19 03:47 42.25260 -82.56883 22422 ft 445 kts 97°
2026-04-19 03:48 42.25413 -82.52688 23041 ft 450 kts 97°
2026-04-19 03:48 42.25568 -82.48453 23640 ft 455 kts 97°
2026-04-19 03:48 42.25765 -82.44149 24142 ft 463 kts 94°
2026-04-19 03:48 42.26078 -82.39794 24620 ft 470 kts 92°
2026-04-19 03:49 42.26481 -82.35392 25134 ft 475 kts 90°
2026-04-19 03:49 42.26930 -82.30956 25627 ft 480 kts 90°
2026-04-19 03:49 42.27387 -82.26460 26090 ft 485 kts 90°
2026-04-19 03:49 42.27826 -82.21919 26542 ft 490 kts 91°
2026-04-19 03:50 42.28244 -82.17328 26989 ft 495 kts 91°
2026-04-19 03:50 42.28643 -82.12696 27425 ft 500 kts 91°
2026-04-19 03:50 42.29034 -82.08009 27859 ft 504 kts 91°
2026-04-19 03:50 42.29423 -82.03273 28287 ft 510 kts 91°
2026-04-19 03:51 42.29817 -81.98490 28704 ft 515 kts 91°
2026-04-19 03:51 42.30215 -81.93666 28973 ft 519 kts 91°
2026-04-19 03:51 42.30619 -81.88862 29019 ft 507 kts 91°
2026-04-19 03:51 42.31024 -81.84206 29017 ft 491 kts 91°
2026-04-19 03:52 42.31419 -81.79667 29019 ft 484 kts 92°
2026-04-19 03:52 42.32161 -81.70674 29006 ft 479 kts 92°
2026-04-19 03:53 42.32859 -81.61725 29021 ft 477 kts 93°
2026-04-19 03:53 42.32886 -81.52929 29021 ft 462 kts 105°
2026-04-19 03:54 42.32466 -81.44260 29015 ft 463 kts 105°
2026-04-19 03:54 42.32057 -81.35633 29010 ft 463 kts 105°
2026-04-19 03:55 42.31636 -81.26965 28952 ft 462 kts 105°
2026-04-19 03:55 42.31197 -81.18217 29007 ft 465 kts 105°
2026-04-19 03:56 42.30751 -81.09512 29016 ft 464 kts 105°
2026-04-19 03:56 42.30304 -81.00811 29011 ft 464 kts 105°
2026-04-19 03:57 42.29855 -80.92182 29007 ft 464 kts 106°
2026-04-19 03:57 42.29384 -80.83440 29003 ft 464 kts 106°
2026-04-19 03:58 42.29199 -80.74715 29005 ft 478 kts 94°
2026-04-19 03:58 42.29731 -80.70250 29005 ft 488 kts 83°
2026-04-19 03:58 42.30604 -80.65806 29007 ft 489 kts 82°
2026-04-19 03:59 42.32348 -80.56920 28987 ft 489 kts 82°
2026-04-19 03:59 42.34059 -80.48069 28986 ft 485 kts 83°
2026-04-19 04:00 42.35750 -80.39256 28998 ft 483 kts 83°
2026-04-19 04:00 42.37432 -80.30469 28993 ft 482 kts 83°
2026-04-19 04:01 42.39102 -80.21699 28988 ft 481 kts 83°
2026-04-19 04:01 42.41594 -80.08606 28972 ft 476 kts 82°
2026-04-19 04:02 42.43232 -79.99943 28986 ft 474 kts 83°
2026-04-19 04:02 42.44858 -79.91295 28985 ft 473 kts 83°
2026-04-19 04:03 42.46474 -79.82666 28977 ft 472 kts 83°
2026-04-19 04:03 42.48074 -79.74084 28975 ft 467 kts 82°
2026-04-19 04:04 42.49651 -79.65586 28996 ft 463 kts 82°
2026-04-19 04:04 42.51200 -79.57185 29003 ft 461 kts 82°
2026-04-19 04:05 42.52752 -79.48752 29005 ft 460 kts 82°
2026-04-19 04:05 42.54290 -79.40339 28966 ft 460 kts 83°
2026-04-19 04:06 42.55822 -79.31932 29001 ft 458 kts 83°
2026-04-19 04:06 42.57342 -79.23552 28999 ft 456 kts 83°
2026-04-19 04:07 42.58852 -79.15200 28998 ft 455 kts 83°
2026-04-19 04:07 42.60349 -79.06860 28980 ft 454 kts 83°
2026-04-19 04:08 42.61844 -78.98531 28934 ft 453 kts 83°
2026-04-19 04:08 42.63331 -78.90210 28769 ft 454 kts 83°
2026-04-19 04:09 42.64071 -78.86040 28499 ft 453 kts 83°
2026-04-19 04:09 42.64806 -78.81879 28226 ft 453 kts 83°
2026-04-19 04:09 42.65541 -78.77713 27965 ft 453 kts 83°
2026-04-19 04:09 42.66275 -78.73540 27708 ft 453 kts 83°
2026-04-19 04:10 42.67003 -78.69391 27479 ft 452 kts 83°
2026-04-19 04:10 42.67733 -78.65242 27172 ft 450 kts 83°
2026-04-19 04:10 42.68456 -78.61125 26920 ft 447 kts 83°
2026-04-19 04:10 42.69174 -78.57019 26669 ft 445 kts 83°
2026-04-19 04:11 42.69884 -78.52940 26419 ft 443 kts 83°
2026-04-19 04:11 42.70584 -78.48906 26176 ft 441 kts 83°
2026-04-19 04:11 42.71284 -78.44864 25935 ft 439 kts 83°
2026-04-19 04:11 42.71982 -78.40820 25695 ft 438 kts 83°
2026-04-19 04:12 42.72677 -78.36799 25448 ft 436 kts 83°
2026-04-19 04:12 42.73368 -78.32792 25209 ft 434 kts 83°
2026-04-19 04:12 42.73831 -78.30104 25053 ft 433 kts 83°
2026-04-19 04:12 42.74518 -78.26111 24818 ft 432 kts 83°
2026-04-19 04:13 42.75200 -78.22139 24579 ft 430 kts 83°
2026-04-19 04:13 42.75876 -78.18184 24348 ft 428 kts 83°
2026-04-19 04:13 42.76546 -78.14246 24120 ft 427 kts 83°
2026-04-19 04:13 42.77203 -78.10362 23893 ft 425 kts 83°
2026-04-19 04:14 42.77865 -78.06453 23667 ft 424 kts 83°
2026-04-19 04:14 42.78526 -78.02551 23434 ft 422 kts 83°
2026-04-19 04:14 42.79193 -77.98622 23160 ft 420 kts 83°
2026-04-19 04:14 42.79841 -77.94801 22898 ft 419 kts 83°
2026-04-19 04:15 42.80493 -77.90928 22630 ft 420 kts 83°
2026-04-19 04:15 42.81148 -77.87010 22370 ft 419 kts 83°
2026-04-19 04:15 42.81793 -77.83152 22106 ft 417 kts 83°
2026-04-19 04:15 42.82434 -77.79307 21853 ft 415 kts 83°
2026-04-19 04:16 42.83064 -77.75532 21599 ft 413 kts 83°
2026-04-19 04:16 42.83828 -77.71717 21343 ft 415 kts 76°
2026-04-19 04:16 42.84752 -77.68045 21095 ft 413 kts 76°
2026-04-19 04:16 42.85676 -77.64350 20845 ft 411 kts 77°
2026-04-19 04:17 42.86589 -77.60673 20607 ft 409 kts 77°
2026-04-19 04:17 42.87496 -77.57014 20325 ft 405 kts 76°
2026-04-19 04:17 42.88389 -77.53403 20083 ft 400 kts 76°
2026-04-19 04:17 42.89273 -77.49822 19852 ft 397 kts 76°
2026-04-19 04:18 42.90152 -77.46259 19616 ft 395 kts 76°
2026-04-19 04:18 42.91022 -77.42722 19381 ft 393 kts 76°
2026-04-19 04:18 42.91886 -77.39197 19147 ft 391 kts 77°
2026-04-19 04:18 42.92746 -77.35689 18915 ft 389 kts 77°
2026-04-19 04:19 42.93601 -77.32195 18699 ft 388 kts 77°
2026-04-19 04:19 42.94464 -77.28664 18467 ft 387 kts 77°
2026-04-19 04:19 42.95305 -77.25223 18241 ft 386 kts 77°
2026-04-19 04:19 42.96128 -77.21707 17938 ft 381 kts 82°
2026-04-19 04:20 42.96574 -77.18192 17680 ft 373 kts 88°
2026-04-19 04:20 42.96933 -77.14695 17417 ft 371 kts 89°
2026-04-19 04:20 42.97280 -77.11253 17160 ft 369 kts 89°
2026-04-19 04:20 42.97631 -77.07750 16897 ft 367 kts 88°
2026-04-19 04:21 42.97974 -77.04303 16641 ft 365 kts 89°
2026-04-19 04:21 42.98312 -77.00916 16389 ft 363 kts 88°
2026-04-19 04:21 42.98650 -76.97513 16138 ft 362 kts 88°
2026-04-19 04:21 42.98986 -76.94114 15889 ft 360 kts 88°
2026-04-19 04:22 42.99245 -76.90733 15645 ft 355 kts 93°
2026-04-19 04:22 42.99392 -76.87378 15347 ft 354 kts 93°
2026-04-19 04:22 42.99524 -76.84021 14913 ft 354 kts 93°
2026-04-19 04:22 42.99643 -76.80670 14500 ft 353 kts 93°
2026-04-19 04:23 42.99756 -76.77315 14108 ft 353 kts 93°
2026-04-19 04:23 42.99868 -76.73969 13712 ft 352 kts 93°
2026-04-19 04:23 42.99979 -76.70627 13268 ft 352 kts 93°
2026-04-19 04:23 43.00086 -76.67296 12828 ft 350 kts 93°
2026-04-19 04:24 43.00176 -76.63938 12384 ft 348 kts 96°
2026-04-19 04:24 43.00115 -76.60689 11915 ft 346 kts 98°
2026-04-19 04:24 43.00015 -76.57399 11417 ft 347 kts 98°
2026-04-19 04:24 42.99903 -76.54069 10921 ft 347 kts 98°
2026-04-19 04:25 42.99786 -76.50820 10442 ft 346 kts 98°
2026-04-19 04:25 42.99652 -76.47535 9953 ft 345 kts 98°
2026-04-19 04:25 42.99497 -76.44273 9454 ft 344 kts 98°
2026-04-19 04:25 42.99336 -76.41030 8921 ft 342 kts 98°
2026-04-19 04:26 42.99163 -76.37801 8418 ft 339 kts 98°
2026-04-19 04:26 42.98971 -76.34600 7907 ft 335 kts 98°
2026-04-19 04:26 42.98769 -76.31443 7413 ft 332 kts 98°
2026-04-19 04:26 42.98560 -76.28325 6927 ft 329 kts 98°
2026-04-19 04:27 42.98350 -76.25229 6443 ft 325 kts 98°
2026-04-19 04:27 42.98138 -76.22175 5943 ft 322 kts 98°
2026-04-19 04:27 42.97914 -76.19184 5420 ft 308 kts 98°
2026-04-19 04:27 42.97681 -76.16353 4925 ft 294 kts 97°
2026-04-19 04:28 42.97430 -76.13616 4433 ft 290 kts 101°
2026-04-19 04:28 42.97266 -76.10865 4051 ft 288 kts 99°
2026-04-19 04:28 42.97175 -76.08139 4007 ft 288 kts 97°
2026-04-19 04:28 42.97072 -76.05396 4014 ft 289 kts 98°
2026-04-19 04:29 42.96972 -76.02660 4012 ft 289 kts 97°
2026-04-19 04:29 42.96866 -75.99920 4006 ft 290 kts 96°
2026-04-19 04:29 42.96700 -75.97171 4009 ft 290 kts 97°
2026-04-19 04:29 42.96485 -75.94436 4008 ft 291 kts 98°
2026-04-19 04:30 42.96344 -75.91678 3986 ft 293 kts 95°
2026-04-19 04:30 42.96268 -75.88892 3630 ft 291 kts 94°
2026-04-19 04:30 42.96182 -75.86150 3280 ft 288 kts 94°
2026-04-19 04:30 42.96249 -75.83431 2926 ft 286 kts 78°
2026-04-19 04:31 42.97007 -75.80963 2698 ft 283 kts 53°
2026-04-19 04:31 42.98383 -75.79109 2689 ft 277 kts 29°
2026-04-19 04:31 43.00137 -75.78120 2690 ft 274 kts
2026-04-19 04:31 43.02015 -75.78114 2680 ft 259 kts 341°
2026-04-19 04:32 43.03585 -75.78932 2677 ft 226 kts 321°
2026-04-19 04:32 43.04715 -75.80190 2688 ft 200 kts 306°
2026-04-19 04:32 43.05471 -75.81661 2686 ft 182 kts 295°
2026-04-19 04:32 43.06116 -75.83128 2689 ft 180 kts 296°
2026-04-19 04:33 43.06800 -75.84688 2700 ft 194 kts 296°
2026-04-19 04:33 43.07497 -75.86261 2616 ft 196 kts 296°
2026-04-19 04:33 43.08203 -75.87851 2503 ft 195 kts 296°
2026-04-19 04:33 43.08910 -75.89442 2377 ft 196 kts 297°
2026-04-19 04:34 43.09618 -75.91035 2245 ft 195 kts 297°
2026-04-19 04:34 43.10322 -75.92617 2156 ft 194 kts 297°
2026-04-19 04:34 43.11012 -75.94192 2123 ft 191 kts 294°
2026-04-19 04:34 43.11346 -75.95919 2125 ft 183 kts 271°
2026-04-19 04:35 43.11300 -75.97599 2071 ft 172 kts 266°
2026-04-19 04:35 43.11251 -75.99210 1907 ft 167 kts 267°
2026-04-19 04:35 43.11202 -76.00746 1731 ft 155 kts 268°
2026-04-19 04:35 43.11157 -76.02163 1504 ft 142 kts 268°
2026-04-19 04:36 43.11116 -76.03458 1322 ft 129 kts 267°
2026-04-19 04:36 43.11085 -76.04633 1097 ft 122 kts 268°
2026-04-19 04:36 43.11041 -76.05764 978 ft 118 kts 271°
2026-04-19 04:36 43.11000 -76.06857 856 ft 113 kts 273°
2026-04-19 04:37 43.10975 -76.07936 693 ft 114 kts 270°
2026-04-19 04:37 43.10935 -76.09020 502 ft 113 kts 272°
2026-04-19 04:37 43.10902 -76.10063 423 ft 98 kts 268°
2026-04-19 04:37 43.10880 -76.10790 426 ft 52 kts 267°
2026-04-19 04:38 43.10871 -76.11087 424 ft 21 kts 268°
2026-04-19 04:38 43.10867 -76.11257 424 ft 15 kts 268°
2026-04-19 04:38 43.10917 -76.11334 426 ft 11 kts 334°
2026-04-19 04:38 43.10978 -76.11343 416 ft 8 kts 51°
2026-04-19 04:39 43.10989 -76.11283 422 ft 5 kts 84°
2026-04-19 04:39 43.10990 -76.11245 425 ft 3 kts 88°
2026-04-19 04:39 43.10992 -76.11158 425 ft 21 kts 88°
2026-04-19 04:39 43.10998 -76.10966 425 ft 19 kts 88°
2026-04-19 04:40 43.11020 -76.10825 419 ft 11 kts 19°
2026-04-19 04:40 43.11093 -76.10817 424 ft 9 kts 355°
2026-04-19 04:40 43.11149 -76.10824 419 ft 7 kts 354°
2026-04-19 04:40 43.11187 -76.10825 424 ft 4 kts 10°
2026-04-19 04:41 43.11197 -76.10805 421 ft 3 kts 66°
2026-04-19 04:41 43.11223 -76.10732 418 ft 7 kts 358°
2026-04-19 04:41 43.11302 -76.10732 418 ft 13 kts 359°
2026-04-19 04:41 43.11374 -76.10735 422 ft 7 kts 351°
2026-04-19 04:42 43.11401 -76.10779 421 ft 6 kts 282°
2026-04-19 04:42 43.11402 -76.10842 424 ft 7 kts 266°
2026-04-19 04:42 43.11399 -76.10893 424 ft 6 kts 265°
2026-04-19 04:42 43.11399 -76.10942 424 ft 5 kts 270°
2026-04-19 04:43 43.11400 -76.10957 424 ft 0 kts 289°
2026-04-19 04:43 43.11422 -76.10960 424 ft 2 kts 354°
2026-04-19 04:43 43.11440 -76.10961 421 ft 3 kts 356°
2026-04-19 04:43 43.11447 -76.10962 414 ft 2 kts 356°
2026-04-19 04:44 43.11454 -76.10963 418 ft 0 kts 356°